Flag for Rwanda Weather past 2 weeks in Gitarama, Rwanda

Now
63 °F

Passing clouds.


Feels Like: 63 °F
Forecast: 62 / 76 °F
Wind: No wind

Location: Kigali Airport

Current Time: Sep 5, 2015 at 3:53:41 AM

Latest Report: Sep 5, 2015 at 3:30 AM


Visibility: N/A

Pressure: 30.15 "Hg (24.18 "Hg at 1872m altitude)

Humidity: 100%

Dew point: 63 °F

Location of GitaramaLocation

Historic Weather in Gitarama — Graph

°F

Gitarama temperature yesterday

Maximum temperature yesterday: 81 °F (at 2:00 PM)
Minimum temperature yesterday: 64 °F (at 12:30 AM)
Average temperature yesterday: 70 °F

Past Weeks' High & Low Weather Summary

 TemperatureHumidityPressure
High90 °F (Aug 27, 3:30 PM)100% (Aug 31, 11:00 PM)30.27 "Hg (Aug 31, 11:00 PM)
Low57 °F (Aug 24, 5:30 AM)23% (Aug 24, 5:00 PM)30.01 "Hg (Aug 21, 3:30 PM)
Average74 °F59%30.13 "Hg
* Reported Aug 21 2:00 AM — Sep 5 2:30 AM, Gitarama, Weather by CustomWeather, © 2015

Note: Actual official high and low records may vary slightly from our data, if they occured in-between our weather recording intervals... More about our weather records

Advertising

Gitarama weather history for previous 24 hours

 ConditionsComfort  
Time TempWeatherWind HumidityBarometerVisibility
2:30 AM
Sat, Sep 5
63 °FPassing clouds.5 mph100%30.15 "HgN/A
2:00 AM63 °FPassing clouds.3 mph100%30.15 "HgN/A
1:30 AM63 °FPassing clouds.5 mph100%N/AN/A
12:00 AM64 °FPassing clouds.3 mph100%30.21 "HgN/A
11:00 PM
Fri, Sep 4
64 °FThunderstorms. Passing clouds.9 mph100%30.24 "HgN/A
10:00 PM64 °FThunderstorms. Passing clouds.5 mph100%30.24 "HgN/A
9:30 PM68 °FLight rain. Partly cloudy.5 mph94%30.21 "HgN/A
9:00 PM70 °FLight rain. Passing clouds.5 mph83%30.21 "HgN/A
8:30 PM72 °FPassing clouds.3 mph73%30.21 "HgN/A
8:00 PM72 °FPassing clouds.5 mph73%30.18 "HgN/A
7:30 PM72 °FPassing clouds.5 mph73%30.18 "HgN/A
7:00 PM72 °FPassing clouds.7 mph73%30.15 "HgN/A
6:30 PM73 °FPassing clouds.7 mph65%30.15 "HgN/A
6:00 PM75 °FPassing clouds.7 mph61%30.12 "HgN/A
5:00 PM77 °FScattered clouds.9 mph57%30.09 "HgN/A
4:30 PM77 °FScattered clouds.10 mph57%30.09 "HgN/A
4:00 PM81 °FPartly sunny.9 mph54%30.09 "HgN/A
3:30 PM81 °FPartly sunny.9 mph54%30.09 "HgN/A
3:00 PM79 °FPartly sunny.8 mph58%30.09 "HgN/A
2:30 PM81 °FPartly sunny.9 mph54%30.12 "HgN/A
2:00 PM81 °FPartly sunny.9 mph58%30.12 "HgN/A
1:30 PM79 °FScattered clouds.10 mph58%30.15 "HgN/A
1:00 PM79 °FScattered clouds.9 mph54%30.15 "HgN/A
12:30 PM79 °FScattered clouds.8 mph58%30.18 "HgN/A
12:00 PM77 °FScattered clouds.8 mph65%30.18 "HgN/A
11:00 AM75 °FBroken clouds.3 mph69%30.21 "HgN/A
10:30 AM73 °FBroken clouds.3 mph78%30.24 "HgN/A
10:00 AM70 °FBroken clouds.3 mph83%30.24 "HgN/A
9:30 AM68 °FBroken clouds.3 mph88%30.24 "HgN/A
9:00 AM66 °FBroken clouds.3 mph94%30.24 "HgN/A
8:30 AM66 °FBroken clouds.No wind100%30.24 "Hg5 mi
8:00 AM66 °FBroken clouds.No wind100%30.24 "Hg5 mi
7:30 AM64 °FBroken clouds.No wind100%30.24 "HgN/A
7:00 AM64 °FBroken clouds.3 mph100%30.21 "HgN/A
6:30 AM64 °FPartly sunny.No wind100%30.18 "HgN/A
5:30 AM64 °FPartly cloudy.3 mph100%30.18 "HgN/A
5:00 AM64 °FPartly cloudy.No wind100%30.15 "HgN/A
4:30 AM64 °FPartly cloudy.No wind100%30.15 "HgN/A
4:00 AM64 °FPartly cloudy.No wind100%30.15 "HgN/A
3:30 AM64 °FPartly cloudy.No wind100%30.15 "HgN/A
3:00 AM64 °FPartly cloudy.3 mph100%30.15 "HgN/A
Weather by CustomWeather, © 2015

See weather overviewHow to use our weather pages